ESR225 RJFF-RKPC

Flight info

Callsign ESR225
Flight time 0h 53m
Altitude 24000
Route RJFF/34 N0413F240 HAKAT4 DGC A595 TAMNA TAMN2T RKPC/25
Aircraft B736/M-SCDFGHIRUWXYZ/L

Departure

Time 2026-05-07 14:43
Airport Fukuoka Airport (RJFF)

Arrival

Time 2026-05-07 15:37
Airport Jeju International Airport (RKPC)
Time Latitude Longitude Altitude Speed Heading
2026-05-07 14:01 33.58490 130.44552 33 ft 0 kts 241°
2026-05-07 14:25 33.58501 130.44576 34 ft 4 kts 241°
2026-05-07 14:26 33.58514 130.44605 32 ft 4 kts 240°
2026-05-07 14:26 33.58528 130.44633 33 ft 4 kts 237°
2026-05-07 14:26 33.58543 130.44659 35 ft 4 kts 231°
2026-05-07 14:26 33.58561 130.44682 35 ft 4 kts 211°
2026-05-07 14:27 33.58581 130.44689 33 ft 2 kts 152°
2026-05-07 14:27 33.58599 130.44677 36 ft 2 kts 151°
2026-05-07 14:27 33.58600 130.44676 36 ft 0 kts 151°
2026-05-07 14:29 33.58599 130.44677 36 ft 1 kts 150°
2026-05-07 14:30 33.58575 130.44694 36 ft 8 kts 150°
2026-05-07 14:30 33.58501 130.44743 35 ft 15 kts 152°
2026-05-07 14:30 33.58394 130.44814 38 ft 20 kts 150°
2026-05-07 14:30 33.58263 130.44902 36 ft 23 kts 150°
2026-05-07 14:31 33.58123 130.44997 37 ft 23 kts 150°
2026-05-07 14:31 33.57987 130.45088 35 ft 22 kts 150°
2026-05-07 14:31 33.57857 130.45175 38 ft 20 kts 150°
2026-05-07 14:31 33.57741 130.45254 38 ft 19 kts 150°
2026-05-07 14:32 33.57696 130.45285 37 ft 0 kts 150°
2026-05-07 14:33 33.57647 130.45318 39 ft 12 kts 151°
2026-05-07 14:34 33.57618 130.45373 42 ft 2 kts 57°
2026-05-07 14:34 33.57620 130.45377 42 ft 0 kts 60°
2026-05-07 14:35 33.57621 130.45380 43 ft 5 kts 60°
2026-05-07 14:36 33.57687 130.45430 44 ft 14 kts 347°
2026-05-07 14:36 33.57712 130.45416 42 ft 0 kts 330°
2026-05-07 14:36 33.57718 130.45412 43 ft 1 kts 330°
2026-05-07 14:36 33.57721 130.45410 42 ft 1 kts 330°
2026-05-07 14:42 33.57799 130.45358 38 ft 45 kts 330°
2026-05-07 14:43 33.58324 130.45001 35 ft 125 kts 330°
2026-05-07 14:43 33.59237 130.44381 287 ft 164 kts 330°
2026-05-07 14:43 33.60199 130.43747 1312 ft 150 kts 331°
2026-05-07 14:43 33.61133 130.43177 2130 ft 152 kts 333°
2026-05-07 14:44 33.62141 130.42558 2583 ft 179 kts 332°
2026-05-07 14:44 33.63337 130.41794 2916 ft 210 kts 330°
2026-05-07 14:44 33.64711 130.40894 3152 ft 240 kts 330°
2026-05-07 14:44 33.66238 130.39866 3636 ft 259 kts 326°
2026-05-07 14:45 33.67475 130.38304 4575 ft 261 kts 297°
2026-05-07 14:45 33.68014 130.36268 5578 ft 262 kts 279°
2026-05-07 14:45 33.68298 130.34082 6526 ft 267 kts 276°
2026-05-07 14:45 33.68544 130.31857 7470 ft 271 kts 275°
2026-05-07 14:46 33.68788 130.29600 8443 ft 273 kts 275°
2026-05-07 14:46 33.69037 130.27334 9462 ft 274 kts 275°
2026-05-07 14:46 33.69292 130.25056 10385 ft 278 kts 276°
2026-05-07 14:46 33.69562 130.22658 10734 ft 304 kts 276°
2026-05-07 14:47 33.69859 130.20047 11112 ft 324 kts 276°
2026-05-07 14:47 33.70172 130.17341 11902 ft 329 kts 276°
2026-05-07 14:47 33.70490 130.14613 12840 ft 330 kts 276°
2026-05-07 14:47 33.70810 130.11875 13740 ft 333 kts 276°
2026-05-07 14:48 33.71132 130.09114 14629 ft 335 kts 276°
2026-05-07 14:48 33.71456 130.06331 15495 ft 338 kts 276°
2026-05-07 14:48 33.71781 130.03533 16388 ft 339 kts 275°
2026-05-07 14:48 33.72107 130.00713 17241 ft 342 kts 275°
2026-05-07 14:49 33.72435 129.97877 18066 ft 344 kts 275°
2026-05-07 14:49 33.72765 129.95017 18871 ft 347 kts 275°
2026-05-07 14:49 33.73098 129.92123 19570 ft 352 kts 275°
2026-05-07 14:49 33.73436 129.89186 20254 ft 357 kts 275°
2026-05-07 14:50 33.73777 129.86216 20912 ft 360 kts 275°
2026-05-07 14:50 33.74121 129.83210 21463 ft 365 kts 275°
2026-05-07 14:50 33.74468 129.80162 21948 ft 370 kts 275°
2026-05-07 14:50 33.74643 129.77069 22465 ft 372 kts 268°
2026-05-07 14:51 33.74422 129.73981 23110 ft 370 kts 261°
2026-05-07 14:51 33.74086 129.70920 23747 ft 370 kts 261°
2026-05-07 14:51 33.73742 129.67872 23944 ft 365 kts 261°
2026-05-07 14:51 33.73404 129.64844 23987 ft 366 kts 261°
2026-05-07 14:52 33.73066 129.61787 23994 ft 371 kts 261°
2026-05-07 14:52 33.72731 129.58724 23992 ft 370 kts 261°
2026-05-07 14:52 33.72400 129.55662 23997 ft 369 kts 261°
2026-05-07 14:52 33.72074 129.52650 23997 ft 368 kts 261°
2026-05-07 14:53 33.71745 129.49596 23996 ft 368 kts 261°
2026-05-07 14:53 33.71414 129.46544 23995 ft 368 kts 261°
2026-05-07 14:53 33.71084 129.43494 23995 ft 368 kts 261°
2026-05-07 14:53 33.70752 129.40443 23995 ft 368 kts 261°
2026-05-07 14:54 33.70420 129.37393 23995 ft 368 kts 261°
2026-05-07 14:54 33.70088 129.34343 23995 ft 369 kts 261°
2026-05-07 14:54 33.69754 129.31289 23995 ft 369 kts 261°
2026-05-07 14:54 33.69418 129.28233 23995 ft 369 kts 261°
2026-05-07 14:55 33.69082 129.25177 23994 ft 369 kts 261°
2026-05-07 14:55 33.68744 129.22120 23994 ft 369 kts 261°
2026-05-07 14:55 33.68406 129.19071 23995 ft 369 kts 261°
2026-05-07 14:55 33.68066 129.16008 23995 ft 369 kts 261°
2026-05-07 14:56 33.67727 129.12952 23995 ft 369 kts 261°
2026-05-07 14:56 33.67386 129.09895 23994 ft 369 kts 261°
2026-05-07 14:56 33.67045 129.06839 23994 ft 369 kts 261°
2026-05-07 14:56 33.66704 129.03785 23994 ft 369 kts 261°
2026-05-07 14:57 33.66361 129.00731 23994 ft 369 kts 261°
2026-05-07 14:57 33.66018 128.97674 23994 ft 369 kts 261°
2026-05-07 14:57 33.65679 128.94660 23994 ft 369 kts 261°
2026-05-07 14:57 33.65329 128.91566 23994 ft 369 kts 261°
2026-05-07 14:58 33.64989 128.88558 23994 ft 369 kts 261°
2026-05-07 14:58 33.64643 128.85506 23994 ft 369 kts 261°
2026-05-07 14:58 33.64297 128.82456 23994 ft 369 kts 261°
2026-05-07 14:58 33.63950 128.79406 23994 ft 369 kts 261°
2026-05-07 14:59 33.63602 128.76357 23994 ft 369 kts 261°
2026-05-07 14:59 33.63253 128.73310 23994 ft 369 kts 261°
2026-05-07 14:59 33.62904 128.70261 23994 ft 369 kts 261°
2026-05-07 14:59 33.62553 128.67212 23994 ft 369 kts 261°
2026-05-07 15:00 33.62203 128.64165 23982 ft 368 kts 261°
2026-05-07 15:00 33.61856 128.61158 23944 ft 361 kts 261°
2026-05-07 15:00 33.61512 128.58181 23947 ft 359 kts 261°
2026-05-07 15:00 33.61167 128.55203 23947 ft 362 kts 261°
2026-05-07 15:01 33.60819 128.52211 23944 ft 362 kts 261°
2026-05-07 15:01 33.60475 128.49253 23939 ft 363 kts 261°
2026-05-07 15:01 33.60125 128.46256 23938 ft 363 kts 261°
2026-05-07 15:01 33.59776 128.43261 23941 ft 363 kts 261°
2026-05-07 15:02 33.59425 128.40265 23938 ft 362 kts 261°
2026-05-07 15:02 33.59075 128.37278 23941 ft 362 kts 261°
2026-05-07 15:02 33.58724 128.34292 23941 ft 361 kts 261°
2026-05-07 15:02 33.58373 128.31311 23939 ft 361 kts 261°
2026-05-07 15:03 33.58033 128.28332 23937 ft 361 kts 261°
2026-05-07 15:03 33.57701 128.25350 23942 ft 360 kts 261°
2026-05-07 15:03 33.57372 128.22375 23942 ft 360 kts 261°
2026-05-07 15:03 33.57042 128.19399 23942 ft 360 kts 261°
2026-05-07 15:04 33.56712 128.16435 23788 ft 355 kts 261°
2026-05-07 15:04 33.56388 128.13531 23528 ft 348 kts 261°
2026-05-07 15:04 33.56069 128.10678 23274 ft 343 kts 261°
2026-05-07 15:04 33.55750 128.07847 23032 ft 342 kts 261°
2026-05-07 15:05 33.55431 128.05021 22785 ft 342 kts 261°
2026-05-07 15:05 33.55112 128.02197 22537 ft 342 kts 261°
2026-05-07 15:05 33.54792 127.99376 22288 ft 341 kts 261°
2026-05-07 15:05 33.54473 127.96564 22039 ft 340 kts 261°
2026-05-07 15:06 33.54153 127.93757 21827 ft 339 kts 261°
2026-05-07 15:06 33.53836 127.90971 21636 ft 336 kts 261°
2026-05-07 15:06 33.53519 127.88202 21461 ft 334 kts 261°
2026-05-07 15:06 33.53204 127.85448 21284 ft 333 kts 261°
2026-05-07 15:07 33.52890 127.82708 21109 ft 332 kts 261°
2026-05-07 15:07 33.52580 127.80010 20938 ft 331 kts 261°
2026-05-07 15:07 33.52265 127.77280 20764 ft 330 kts 261°
2026-05-07 15:07 33.51950 127.74552 20590 ft 330 kts 261°
2026-05-07 15:08 33.51635 127.71828 20415 ft 330 kts 261°
2026-05-07 15:08 33.51320 127.69108 20244 ft 330 kts 261°
2026-05-07 15:08 33.51005 127.66391 20064 ft 329 kts 261°
2026-05-07 15:08 33.50689 127.63671 19895 ft 329 kts 261°
2026-05-07 15:09 33.50372 127.60958 19714 ft 329 kts 261°
2026-05-07 15:09 33.50056 127.58247 19545 ft 328 kts 261°
2026-05-07 15:09 33.49740 127.55547 19367 ft 327 kts 261°
2026-05-07 15:09 33.49424 127.52851 19191 ft 326 kts 261°
2026-05-07 15:10 33.49109 127.50162 19017 ft 326 kts 261°
2026-05-07 15:10 33.48793 127.47482 18841 ft 325 kts 261°
2026-05-07 15:10 33.48478 127.44807 18665 ft 323 kts 261°
2026-05-07 15:10 33.48164 127.42146 18489 ft 322 kts 261°
2026-05-07 15:11 33.47851 127.39490 18313 ft 322 kts 261°
2026-05-07 15:11 33.47537 127.36841 18140 ft 321 kts 261°
2026-05-07 15:11 33.47224 127.34206 17999 ft 319 kts 261°
2026-05-07 15:11 33.46910 127.31569 17955 ft 319 kts 261°
2026-05-07 15:12 33.46596 127.28945 17948 ft 318 kts 261°
2026-05-07 15:12 33.46281 127.26318 17946 ft 319 kts 261°
2026-05-07 15:12 33.45970 127.23721 17940 ft 319 kts 261°
2026-05-07 15:12 33.45654 127.21090 17937 ft 319 kts 261°
2026-05-07 15:13 33.45339 127.18470 17914 ft 316 kts 261°
2026-05-07 15:13 33.45028 127.15887 17612 ft 313 kts 261°
2026-05-07 15:13 33.44718 127.13315 17124 ft 312 kts 261°
2026-05-07 15:13 33.44410 127.10767 16927 ft 306 kts 261°
2026-05-07 15:14 33.44105 127.08247 16725 ft 307 kts 261°
2026-05-07 15:14 33.43900 127.06560 16600 ft 311 kts 261°
2026-05-07 15:14 33.43496 127.03241 16348 ft 316 kts 261°
2026-05-07 15:14 33.43180 127.00640 16144 ft 314 kts 261°
2026-05-07 15:15 33.42866 126.98057 15943 ft 313 kts 260°
2026-05-07 15:15 33.42551 126.95477 15701 ft 314 kts 260°
2026-05-07 15:15 33.42234 126.92890 15449 ft 315 kts 260°
2026-05-07 15:15 33.41916 126.90296 15203 ft 315 kts 260°
2026-05-07 15:16 33.41791 126.87684 14929 ft 318 kts 274°
2026-05-07 15:16 33.42361 126.85119 14694 ft 322 kts 290°
2026-05-07 15:16 33.43559 126.82831 14430 ft 328 kts 304°
2026-05-07 15:16 33.45026 126.80732 14160 ft 329 kts 306°
2026-05-07 15:17 33.46532 126.78673 13882 ft 328 kts 307°
2026-05-07 15:17 33.48034 126.76614 13608 ft 328 kts 307°
2026-05-07 15:17 33.49517 126.74550 13335 ft 327 kts 306°
2026-05-07 15:17 33.50984 126.72484 13059 ft 325 kts 306°
2026-05-07 15:18 33.52418 126.70453 12789 ft 322 kts 306°
2026-05-07 15:18 33.53884 126.68432 12504 ft 321 kts 312°
2026-05-07 15:18 33.55760 126.66967 12212 ft 327 kts 334°
2026-05-07 15:18 33.57988 126.66389 11922 ft 332 kts 355°
2026-05-07 15:19 33.60297 126.66671 11646 ft 334 kts
2026-05-07 15:19 33.62585 126.67157 11343 ft 333 kts
2026-05-07 15:19 33.64860 126.67664 11042 ft 332 kts
2026-05-07 15:19 33.67129 126.68150 10741 ft 329 kts
2026-05-07 15:20 33.69365 126.68610 10432 ft 323 kts
2026-05-07 15:20 33.71560 126.69055 10126 ft 316 kts
2026-05-07 15:20 33.73713 126.69487 9822 ft 311 kts
2026-05-07 15:20 33.75829 126.69912 9513 ft 306 kts
2026-05-07 15:21 33.77916 126.70332 9216 ft 301 kts
2026-05-07 15:21 33.79969 126.70745 8913 ft 297 kts
2026-05-07 15:21 33.81996 126.71162 8610 ft 294 kts
2026-05-07 15:21 33.83860 126.72157 8302 ft 296 kts 35°
2026-05-07 15:22 33.85259 126.73942 8074 ft 292 kts 51°
2026-05-07 15:22 33.86442 126.75860 7822 ft 288 kts 52°
2026-05-07 15:22 33.87621 126.77785 7572 ft 284 kts 52°
2026-05-07 15:22 33.88725 126.79729 7303 ft 281 kts 64°
2026-05-07 15:23 33.89147 126.81990 7079 ft 275 kts 91°
2026-05-07 15:23 33.88810 126.84190 7011 ft 262 kts 110°
2026-05-07 15:23 33.88207 126.86232 6996 ft 257 kts 112°
2026-05-07 15:23 33.87599 126.88250 6990 ft 256 kts 112°
2026-05-07 15:24 33.86985 126.90259 6991 ft 256 kts 116°
2026-05-07 15:24 33.86034 126.92046 7000 ft 254 kts 131°
2026-05-07 15:24 33.84909 126.93687 6997 ft 255 kts 133°
2026-05-07 15:24 33.83773 126.95332 6996 ft 256 kts 132°
2026-05-07 15:25 33.82644 126.96994 6995 ft 257 kts 132°
2026-05-07 15:25 33.81460 126.98599 6985 ft 255 kts 143°
2026-05-07 15:25 33.79976 126.99703 6980 ft 249 kts 166°
2026-05-07 15:25 33.78311 126.99752 6991 ft 235 kts 199°
2026-05-07 15:26 33.76922 126.98866 6883 ft 222 kts 222°
2026-05-07 15:26 33.75919 126.97487 6655 ft 218 kts 237°
2026-05-07 15:26 33.75106 126.95947 6370 ft 219 kts 239°
2026-05-07 15:26 33.74320 126.94383 6125 ft 218 kts 240°
2026-05-07 15:27 33.73539 126.92827 5892 ft 217 kts 240°
2026-05-07 15:27 33.72754 126.91272 5616 ft 218 kts 239°
2026-05-07 15:27 33.71941 126.89741 5383 ft 217 kts 238°
2026-05-07 15:27 33.71136 126.88216 5141 ft 216 kts 239°
2026-05-07 15:28 33.70341 126.86682 4880 ft 216 kts 239°
2026-05-07 15:28 33.69553 126.85148 4658 ft 215 kts 239°
2026-05-07 15:28 33.68777 126.83629 4480 ft 213 kts 239°
2026-05-07 15:28 33.68003 126.82110 4303 ft 213 kts 239°
2026-05-07 15:29 33.67229 126.80591 4138 ft 214 kts 239°
2026-05-07 15:29 33.66455 126.79072 3956 ft 213 kts 239°
2026-05-07 15:29 33.65687 126.77566 3791 ft 209 kts 239°
2026-05-07 15:29 33.64946 126.76113 3617 ft 200 kts 239°
2026-05-07 15:30 33.64237 126.74724 3441 ft 191 kts 239°
2026-05-07 15:30 33.63561 126.73398 3275 ft 181 kts 239°
2026-05-07 15:30 33.62926 126.72155 3152 ft 171 kts 239°
2026-05-07 15:30 33.62305 126.70933 3033 ft 172 kts 239°
2026-05-07 15:31 33.61691 126.69711 2876 ft 169 kts 239°
2026-05-07 15:31 33.61083 126.68512 2762 ft 168 kts 238°
2026-05-07 15:31 33.60472 126.67317 2637 ft 166 kts 238°
2026-05-07 15:31 33.59895 126.66191 2488 ft 151 kts 238°
2026-05-07 15:32 33.59370 126.65167 2400 ft 140 kts 239°
2026-05-07 15:32 33.58857 126.64167 2263 ft 136 kts 240°
2026-05-07 15:32 33.58383 126.63243 2142 ft 128 kts 240°
2026-05-07 15:32 33.58071 126.62633 2056 ft 131 kts 241°
2026-05-07 15:33 33.57436 126.61393 1897 ft 132 kts 242°
2026-05-07 15:33 33.56937 126.60417 1859 ft 140 kts 242°
2026-05-07 15:33 33.56428 126.59425 1802 ft 139 kts 242°
2026-05-07 15:33 33.55928 126.58449 1744 ft 138 kts 242°
2026-05-07 15:34 33.55589 126.57787 1643 ft 138 kts 242°
2026-05-07 15:34 33.54930 126.56501 1406 ft 136 kts 242°
2026-05-07 15:34 33.54436 126.55535 1231 ft 136 kts 242°
2026-05-07 15:34 33.53942 126.54569 1049 ft 136 kts 242°
2026-05-07 15:35 33.53610 126.53921 920 ft 133 kts 242°
2026-05-07 15:35 33.53121 126.52958 711 ft 136 kts 242°
2026-05-07 15:35 33.52641 126.52005 543 ft 130 kts 242°
2026-05-07 15:35 33.52179 126.51089 392 ft 129 kts 240°
2026-05-07 15:36 33.51691 126.50159 226 ft 134 kts 241°
2026-05-07 15:36 33.51204 126.49218 89 ft 124 kts 240°
2026-05-07 15:36 33.50820 126.48457 91 ft 86 kts 239°
2026-05-07 15:36 33.50578 126.47988 91 ft 53 kts 239°
2026-05-07 15:37 33.50417 126.47677 94 ft 35 kts 239°
2026-05-07 15:37 33.50294 126.47539 94 ft 13 kts 214°
2026-05-07 15:37 33.50274 126.47523 94 ft 1 kts 211°
2026-05-07 15:37 33.50273 126.47523 94 ft 0 kts 209°
2026-05-07 15:38 33.50270 126.47521 95 ft 2 kts 209°
2026-05-07 15:38 33.50245 126.47504 95 ft 6 kts 209°
2026-05-07 15:38 33.50184 126.47498 95 ft 15 kts 152°
2026-05-07 15:39 33.50213 126.47652 93 ft 28 kts 57°
2026-05-07 15:39 33.50330 126.47885 92 ft 32 kts 58°
2026-05-07 15:39 33.50445 126.48109 92 ft 31 kts 58°
2026-05-07 15:39 33.50538 126.48289 90 ft 0 kts 58°
2026-05-07 15:40 33.50538 126.48290 90 ft 1 kts 58°
2026-05-07 15:40 33.50575 126.48361 90 ft 15 kts 58°
2026-05-07 15:40 33.50628 126.48488 91 ft 16 kts 89°
2026-05-07 15:40 33.50571 126.48550 93 ft 12 kts 148°
2026-05-07 15:41 33.50534 126.48632 91 ft 13 kts 63°
2026-05-07 15:41 33.50580 126.48722 90 ft 12 kts 58°
2026-05-07 15:41 33.50562 126.48803 90 ft 12 kts 149°
2026-05-07 15:41 33.50522 126.48832 90 ft 2 kts 149°
2026-05-07 15:42 33.50515 126.48837 90 ft 1 kts 148°
2026-05-07 15:42 33.50514 126.48838 91 ft 0 kts 148°